TimeMDT,TemperatureF,Dew PointF,Humidity,Sea Level PressureIn,VisibilityMPH,Wind Direction,Wind SpeedMPH,Gust SpeedMPH,PrecipitationIn,Events,Conditions,WindDirDegrees,DateUTC
12:53 AM,61.0,57.9,90,29.95,10.0,ESE,5.8,-,0.00,,Mostly Cloudy,120,2013-09-13 06:53:00
1:53 AM,60.1,57.9,93,29.95,10.0,ENE,3.5,-,N/A,,Mostly Cloudy,70,2013-09-13 07:53:00
2:53 AM,60.1,57.0,90,29.94,10.0,Calm,Calm,-,N/A,,Mostly Cloudy,0,2013-09-13 08:53:00
3:53 AM,61.0,57.0,87,29.93,10.0,Calm,Calm,-,N/A,,Overcast,0,2013-09-13 09:53:00
4:53 AM,59.0,55.9,90,29.94,10.0,Calm,Calm,-,N/A,,Mostly Cloudy,0,2013-09-13 10:53:00
5:53 AM,57.0,55.9,96,29.95,10.0,North,4.6,-,N/A,,Clear,350,2013-09-13 11:53:00
6:53 AM,57.9,55.9,93,29.94,10.0,Calm,Calm,-,N/A,,Clear,0,2013-09-13 12:53:00
7:53 AM,57.9,57.9,100,29.96,10.0,Calm,Calm,-,N/A,,Overcast,0,2013-09-13 13:53:00
8:53 AM,60.1,57.9,93,29.96,10.0,Calm,Calm,-,N/A,,Mostly Cloudy,0,2013-09-13 14:53:00
9:53 AM,62.1,59.0,90,29.96,10.0,South,3.5,-,N/A,,Mostly Cloudy,190,2013-09-13 15:53:00
10:53 AM,62.1,59.0,90,29.95,10.0,SSW,3.5,-,N/A,,Overcast,210,2013-09-13 16:53:00
11:53 AM,64.9,59.0,81,29.94,10.0,South,5.8,-,N/A,,Overcast,190,2013-09-13 17:53:00
12:53 PM,66.9,59.0,76,29.91,10.0,Calm,Calm,-,N/A,,Overcast,0,2013-09-13 18:53:00
1:53 PM,68.0,57.9,70,29.89,10.0,Variable,3.5,-,N/A,,Partly Cloudy,0,2013-09-13 19:53:00
2:53 PM,72.0,59.0,64,29.86,10.0,SSW,5.8,-,N/A,,Mostly Cloudy,210,2013-09-13 20:53:00
3:53 PM,73.9,54.0,50,29.84,10.0,West,6.9,-,N/A,,Clear,270,2013-09-13 21:53:00
4:53 PM,75.0,55.0,50,29.82,10.0,West,5.8,-,N/A,,Clear,270,2013-09-13 22:53:00
5:53 PM,75.0,54.0,48,29.81,10.0,WSW,8.1,-,N/A,,Clear,240,2013-09-13 23:53:00
6:53 PM,72.0,57.9,61,29.81,10.0,West,3.5,-,N/A,,Overcast,270,2013-09-14 00:53:00
7:53 PM,64.9,59.0,81,29.83,10.0,Calm,Calm,-,N/A,,Partly Cloudy,0,2013-09-14 01:53:00
8:53 PM,64.0,57.9,80,29.84,10.0,Calm,Calm,-,0.00,,Partly Cloudy,0,2013-09-14 02:53:00
9:53 PM,60.1,55.0,83,29.84,10.0,ENE,4.6,-,N/A,,Partly Cloudy,70,2013-09-14 03:53:00
10:53 PM,59.0,54.0,83,29.84,10.0,Calm,Calm,-,N/A,,Clear,0,2013-09-14 04:53:00
11:53 PM,63.0,55.0,75,29.83,10.0,SSE,4.6,-,N/A,,Partly Cloudy,160,2013-09-14 05:53:00